Scotia — MXHR6 — position and weather

sailwx.info

Track history (hours):
 
Tides and Currents Weather Stations Pressure Air Temp Water Temp Dewpoint Dewpoint Depression Visibility Wind Speed Wind Dir Waves Ship Positions

Oceanographic research ship Scotia (UK)

Detailed information on ship capabilities available from University of Delaware's Ocean Information Center.

Last reported at 2017-Aug-13 08:52 UTC. Time now 2017-Aug-18 02:47 UTC.
Position N 59°18' W 003°30'.

Length 68.6 m; beam 15 m; draft 5.6 m.

Type: Other ship. MMSI: 234973000.

Date/timePositionNaut miles runAvg speedWind from/ knotsBaromVisibWave heightAir tempDewpointWater temp
2017-Aug-13 08:52N 59°18' W 003°30'2 4.3
2017-Aug-13 08:28N 59°17' W 003°27'1 1.9
2017-Aug-13 07:54N 59°16' W 003°28'1 3.8
2017-Aug-13 07:30N 59°15' W 003°29'4 7.6
2017-Aug-13 07:00N 59°11' W 003°32'5 9.6
2017-Aug-13 06:30N 59°07' W 003°36'5 9.8
2017-Aug-13 06:00N 59°02' W 003°40'5 9.8
2017-Aug-13 05:30N 58°58' W 003°45'5 9.7
2017-Aug-13 05:00N 58°54' W 003°49'2 3.5
2017-Aug-13 04:30N 58°52' W 003°49'2 4.0
2017-Aug-13 04:00N 58°50' W 003°47'0 1.0
2017-Aug-13 03:30N 58°50' W 003°46'1 2.5
2017-Aug-13 03:00N 58°51' W 003°48'2 4.6
2017-Aug-13 02:30N 58°50' W 003°44'2 4.7
2017-Aug-13 02:00N 58°48' W 003°40'2 5.0
2017-Aug-13 01:30N 58°47' W 003°36'3 5.0
2017-Aug-13 01:00N 58°45' W 003°33'3 5.8
2017-Aug-13 00:30N 58°44' W 003°27'4 8.0
2017-Aug-13 00:00N 58°43' W 003°20'4 6.8
2017-Aug-12 23:21N 58°43' W 003°11'2 6.0
2017-Aug-12 23:00N 58°43' W 003°07'2 3.2
2017-Aug-12 22:30N 58°42' W 003°04'2 3.3
2017-Aug-12 22:00N 58°41' W 003°02'4 7.1
2017-Aug-12 21:30N 58°39' W 002°57'5 9.5
2017-Aug-12 21:00N 58°36' W 002°50'510.2
2017-Aug-12 20:30N 58°33' W 002°41'48 1.9
2017-Aug-11 19:16N 57°53' W 001°52'311.1
2017-Aug-11 19:00N 57°51' W 001°53'611.1
2017-Aug-11 18:30N 57°45' W 001°56'4 7.4
2017-Aug-11 18:01N 57°42' W 001°58'1 1.8
2017-Aug-11 17:30N 57°42' W 001°57'0 0.7
2017-Aug-11 17:00N 57°42' W 001°57'1 1.1
2017-Aug-11 16:30N 57°42' W 001°56'0 0.8
2017-Aug-11 16:00N 57°43' W 001°56'0 0.4
2017-Aug-11 15:30N 57°43' W 001°56'1 2.9
2017-Aug-11 15:00N 57°42' W 001°58'0 0.3
2017-Aug-11 14:00N 57°42' W 001°59'1 1.1
2017-Aug-11 13:30N 57°42' W 001°58'1 1.4
2017-Aug-11 13:01N 57°42' W 001°57'1 1.1
2017-Aug-11 12:30N 57°43' W 001°57'1 1.6
2017-Aug-11 12:00N 57°43' W 001°58'1 1.2
2017-Aug-11 11:31N 57°43' W 001°59'1 2.0
2017-Aug-11 11:00N 57°43' W 002°01'4 7.6
2017-Aug-11 10:29N 57°45' W 002°08'5 0.3
2017-Aug-10 16:43N 57°50' W 002°04'210.2
2017-Aug-10 16:30N 57°49' W 001°60'5 9.9
2017-Aug-10 16:00N 57°49' W 001°51'5 9.6
2017-Aug-10 15:30N 57°49' W 001°42'7 3.2
2017-Aug-10 13:17N 57°45' W 001°30'3 7.7
2017-Aug-10 12:56N 57°43' W 001°27'4 9.0
2017-Aug-10 12:30N 57°40' W 001°23'5 9.2
2017-Aug-10 12:01N 57°36' W 001°19'23 6.2
2017-Aug-10 08:16N 57°18' W 001°46'312.3
2017-Aug-10 08:00N 57°16' W 001°50'611.9
2017-Aug-10 07:30N 57°12' W 001°58'4 8.8
2017-Aug-10 07:00N 57°09' W 002°04'0 0.8
2017-Aug-10 06:26N 57°09' W 002°05'0 0.0
2017-Aug-10 05:59N 57°09' W 002°05'0 0.0
2017-Aug-10 05:29N 57°09' W 002°05'0 0.0
2017-Aug-10 04:59N 57°09' W 002°05'0 0.0
2017-Aug-10 04:29N 57°09' W 002°05'0 0.0
2017-Aug-10 03:59N 57°09' W 002°05'0 0.0
2017-Aug-10 03:29N 57°09' W 002°05'0 0.0
2017-Aug-10 02:59N 57°09' W 002°05'0 0.0
2017-Aug-10 02:29N 57°09' W 002°05'0 0.0
2017-Aug-10 01:59N 57°09' W 002°05'0 0.0
2017-Aug-10 01:29N 57°09' W 002°05'0 0.0
2017-Aug-10 00:59N 57°09' W 002°05'0 0.0
2017-Aug-10 00:29N 57°09' W 002°05'0 0.0
2017-Aug-09 23:59N 57°09' W 002°05'0 0.0
2017-Aug-09 23:29N 57°09' W 002°05'0 0.0
2017-Aug-09 22:59N 57°09' W 002°05'0 0.0
2017-Aug-09 22:29N 57°09' W 002°05'0 0.0
2017-Aug-09 21:59N 57°09' W 002°05'0 0.0
2017-Aug-09 21:29N 57°09' W 002°05'0 0.0
2017-Aug-09 20:59N 57°09' W 002°05'0 0.0
2017-Aug-09 20:29N 57°09' W 002°05'0 0.0
2017-Aug-09 19:59N 57°09' W 002°05'0 0.0
2017-Aug-09 19:26N 57°09' W 002°05'0 0.0
2017-Aug-09 18:59N 57°09' W 002°05'0 0.0
2017-Aug-09 18:29N 57°09' W 002°05'0 0.0
2017-Aug-09 17:59N 57°09' W 002°05'0 0.0
2017-Aug-09 17:29N 57°09' W 002°05'0 0.0
2017-Aug-09 16:59N 57°09' W 002°05'0 0.0
2017-Aug-09 16:29N 57°09' W 002°05'0 0.0
2017-Aug-09 15:59N 57°09' W 002°05'0 0.0
2017-Aug-09 15:29N 57°09' W 002°05'0 0.0
2017-Aug-09 14:59N 57°09' W 002°05'0 0.0
2017-Aug-09 14:29N 57°09' W 002°05'0 0.0
2017-Aug-09 13:59N 57°09' W 002°05'0 0.0
2017-Aug-09 13:29N 57°09' W 002°05'0 0.0
2017-Aug-09 12:59N 57°09' W 002°05'0 0.0
2017-Aug-09 12:29N 57°09' W 002°05'0 0.0
2017-Aug-09 11:59N 57°09' W 002°05'0 0.0
2017-Aug-09 11:29N 57°09' W 002°05'0 0.0
2017-Aug-09 10:59N 57°09' W 002°05'0 0.0
2017-Aug-09 10:29N 57°09' W 002°05'0 0.0
2017-Aug-09 09:59N 57°09' W 002°05'0 0.0
2017-Aug-09 09:29N 57°09' W 002°05'0 0.0
2017-Aug-09 08:59N 57°09' W 002°05'0 0.0
2017-Aug-09 08:29N 57°09' W 002°05'0 0.0
2017-Aug-09 07:59N 57°09' W 002°05'0 0.0
2017-Aug-09 07:29N 57°09' W 002°05'0 0.0
2017-Aug-09 06:56N 57°09' W 002°05'0 0.0
2017-Aug-09 06:29N 57°09' W 002°05'0 0.0
2017-Aug-09 05:56N 57°09' W 002°05'0 0.0
2017-Aug-09 05:29N 57°09' W 002°05'0 0.0
2017-Aug-09 04:59N 57°09' W 002°05'0 0.0
2017-Aug-09 04:29N 57°09' W 002°05'0 0.0
2017-Aug-09 03:59N 57°09' W 002°05'0 0.0
2017-Aug-09 03:29N 57°09' W 002°05'0 0.0
2017-Aug-09 02:59N 57°09' W 002°05'0 0.0
2017-Aug-09 02:29N 57°09' W 002°05'0 0.0
2017-Aug-09 01:59N 57°09' W 002°05'0 0.0
2017-Aug-09 01:29N 57°09' W 002°05'0 0.0
2017-Aug-09 00:59N 57°09' W 002°05'0 0.0
2017-Aug-09 00:29N 57°09' W 002°05'0 0.0
2017-Aug-08 23:59N 57°09' W 002°05'0 0.0
2017-Aug-08 23:29N 57°09' W 002°05'0 0.0
2017-Aug-08 22:59N 57°09' W 002°05'0 0.0
2017-Aug-08 22:29N 57°09' W 002°05'0 0.0
2017-Aug-08 21:59N 57°09' W 002°05'0 0.0
2017-Aug-08 21:29N 57°09' W 002°05'0 0.0
2017-Aug-08 20:59N 57°09' W 002°05'0 0.0
2017-Aug-08 20:29N 57°09' W 002°05'0 0.0
2017-Aug-08 19:59N 57°09' W 002°05'0 0.0
2017-Aug-08 19:29N 57°09' W 002°05'0 0.0
2017-Aug-08 18:59N 57°09' W 002°05'0 0.0
2017-Aug-08 18:29N 57°09' W 002°05'0 0.0
2017-Aug-08 17:59N 57°09' W 002°05'0 0.0
2017-Aug-08 17:29N 57°09' W 002°05'0 0.0
2017-Aug-08 16:59N 57°09' W 002°05'0 0.0
2017-Aug-08 16:29N 57°09' W 002°05'0 0.0
2017-Aug-08 15:59N 57°09' W 002°05'0 0.0
2017-Aug-08 15:29N 57°09' W 002°05'0 0.0
2017-Aug-08 14:59N 57°09' W 002°05'0 0.0
2017-Aug-08 14:29N 57°09' W 002°05'0 0.0
2017-Aug-08 13:59N 57°09' W 002°05'0 0.0
2017-Aug-08 13:29N 57°09' W 002°05'0 0.0
2017-Aug-08 12:59N 57°09' W 002°05'0 0.0
2017-Aug-08 12:29N 57°09' W 002°05'0 0.0
2017-Aug-08 11:59N 57°09' W 002°05'0 0.0
2017-Aug-08 11:29N 57°09' W 002°05'0 0.0
2017-Aug-08 10:59N 57°09' W 002°05'0 0.0
2017-Aug-08 10:29N 57°09' W 002°05'0 0.0
2017-Aug-08 09:59N 57°09' W 002°05'0 0.0
2017-Aug-08 09:29N 57°09' W 002°05'0 0.0
2017-Aug-08 08:59N 57°09' W 002°05'0 0.0
2017-Aug-08 08:29N 57°09' W 002°05'0 0.0
2017-Aug-08 07:59N 57°09' W 002°05'0 0.0
2017-Aug-08 07:29N 57°09' W 002°05'0 0.0
2017-Aug-08 06:59N 57°09' W 002°05'0 0.0
2017-Aug-08 06:29N 57°09' W 002°05'0 0.0
2017-Aug-08 05:59N 57°09' W 002°05'0 0.0
2017-Aug-08 05:29N 57°09' W 002°05'0 0.0
2017-Aug-08 04:59N 57°09' W 002°05'0 0.0
2017-Aug-08 04:29N 57°09' W 002°05'0 0.0
2017-Aug-08 03:59N 57°09' W 002°05'0 0.0
2017-Aug-08 03:29N 57°09' W 002°05'0 0.0
2017-Aug-08 02:59N 57°09' W 002°05'0 0.0
2017-Aug-08 02:29N 57°09' W 002°05'0 0.0
2017-Aug-08 01:59N 57°09' W 002°05'0 0.0
2017-Aug-08 01:29N 57°09' W 002°05'0 0.0
2017-Aug-08 00:59N 57°09' W 002°05'0 0.0
2017-Aug-08 00:29N 57°09' W 002°05'0 0.0
2017-Aug-07 23:59N 57°09' W 002°05'0 0.0
2017-Aug-07 23:29N 57°09' W 002°05'0 0.0
2017-Aug-07 22:59N 57°09' W 002°05'0 0.0
2017-Aug-07 22:29N 57°09' W 002°05'0 0.0
2017-Aug-07 21:59N 57°09' W 002°05'0 0.0
2017-Aug-07 21:29N 57°09' W 002°05'0 0.0
2017-Aug-07 20:59N 57°09' W 002°05'0 0.0
2017-Aug-07 20:29N 57°09' W 002°05'0 0.0
2017-Aug-07 19:59N 57°09' W 002°05'0 0.0
2017-Aug-07 19:29N 57°09' W 002°05'0 0.0
2017-Aug-07 18:59N 57°09' W 002°05'0 0.0
2017-Aug-07 18:29N 57°09' W 002°05'0 0.0
2017-Aug-07 17:59N 57°09' W 002°05'0 0.0
2017-Aug-07 17:29N 57°09' W 002°05'0 0.0
2017-Aug-07 16:59N 57°09' W 002°05'0 0.0
2017-Aug-07 16:29N 57°09' W 002°05'0 0.0
2017-Aug-07 15:59N 57°09' W 002°05'0 0.0
2017-Aug-07 15:29N 57°09' W 002°05'0 0.0
2017-Aug-07 14:59N 57°09' W 002°05'0 0.0
2017-Aug-07 14:29N 57°09' W 002°05'0 0.0
2017-Aug-07 13:59N 57°09' W 002°05'0 0.0
2017-Aug-07 13:29N 57°09' W 002°05'0 0.0
2017-Aug-07 12:59N 57°09' W 002°05'0 0.0
2017-Aug-07 12:29N 57°09' W 002°05'0 0.0
2017-Aug-07 11:59N 57°09' W 002°05'0 0.0
2017-Aug-07 11:29N 57°09' W 002°05'0 0.0
2017-Aug-07 10:59N 57°09' W 002°05'0 0.0
2017-Aug-07 10:29N 57°09' W 002°05'0 0.0
2017-Aug-07 09:59N 57°09' W 002°05'0 0.0
2017-Aug-07 09:29N 57°09' W 002°05'0 0.0
2017-Aug-07 08:59N 57°09' W 002°05'0 0.0
2017-Aug-07 08:29N 57°09' W 002°05'0 0.0
2017-Aug-07 07:59N 57°09' W 002°05'0 0.0
2017-Aug-07 07:29N 57°09' W 002°05'0 0.0
2017-Aug-07 06:59N 57°09' W 002°05'0 0.0
2017-Aug-07 06:29N 57°09' W 002°05'0 0.0
2017-Aug-07 05:59N 57°09' W 002°05'0 0.0
2017-Aug-07 05:29N 57°09' W 002°05'0 0.0
2017-Aug-07 04:59N 57°09' W 002°05'0 0.0
2017-Aug-07 04:29N 57°09' W 002°05'0 0.0
2017-Aug-07 03:59N 57°09' W 002°05'0 0.0
2017-Aug-07 03:29N 57°09' W 002°05'0 0.0
2017-Aug-07 02:59N 57°09' W 002°05'0 0.0
2017-Aug-07 02:29N 57°09' W 002°05'0 0.0
2017-Aug-07 01:59N 57°09' W 002°05'0 0.0
2017-Aug-07 01:29N 57°09' W 002°05'0 0.0
2017-Aug-07 00:59N 57°09' W 002°05'0 0.0
2017-Aug-07 00:29N 57°09' W 002°05'0 0.0
2017-Aug-06 23:59N 57°09' W 002°05'0 0.0
2017-Aug-06 23:29N 57°09' W 002°05'0 0.0
2017-Aug-06 22:59N 57°09' W 002°05'0 0.0
2017-Aug-06 22:29N 57°09' W 002°05'0 0.0
2017-Aug-06 21:59N 57°09' W 002°05'0 0.0
2017-Aug-06 21:29N 57°09' W 002°05'0 0.0
2017-Aug-06 20:59N 57°09' W 002°05'0 0.0
2017-Aug-06 20:29N 57°09' W 002°05'0 0.0
2017-Aug-06 19:59N 57°09' W 002°05'0 0.0
2017-Aug-06 19:29N 57°09' W 002°05'0 0.0
2017-Aug-06 18:59N 57°09' W 002°05'0 0.0
2017-Aug-06 18:29N 57°09' W 002°05'0 0.0
2017-Aug-06 17:59N 57°09' W 002°05'0 0.0
2017-Aug-06 17:29N 57°09' W 002°05'0 0.0
2017-Aug-06 16:59N 57°09' W 002°05'1 2.5
2017-Aug-06 16:31N 57°09' W 002°03'2 3.1
2017-Aug-06 16:00N 57°10' W 002°01'3 5.7
2017-Aug-06 15:30N 57°12' W 001°58'4 8.7
2017-Aug-06 15:00N 57°16' W 001°54'611.4
2017-Aug-06 14:30N 57°21' W 001°48'611.8
2017-Aug-06 13:58N 57°27' W 001°42'612.2
2017-Aug-06 13:28N 57°33' W 001°40'7012.4
2017-Aug-06 07:46N 58°33' W 002°50'313.2
2017-Aug-06 07:30N 58°36' W 002°53'815.4
2017-Aug-06 07:00N 58°41' W 003°03'915.4
2017-Aug-06 06:27N 58°45' W 003°18'713.8
2017-Aug-06 05:57N 58°50' W 003°26'511.1
2017-Aug-06 05:30N 58°55' W 003°27'3 5.5
2017-Aug-06 05:00N 58°56' W 003°22'0 0.0
2017-Aug-06 04:30N 58°56' W 003°22'0 0.0
2017-Aug-06 04:00N 58°56' W 003°22'1 1.1
2017-Aug-06 03:30N 58°57' W 003°23'3 6.8
2017-Aug-06 03:00N 58°56' W 003°30'4 7.0
2017-Aug-06 02:30N 58°55' W 003°37'3 6.6
2017-Aug-06 02:00N 58°55' W 003°43'3 6.4
2017-Aug-06 01:30N 58°54' W 003°49'3 6.4
2017-Aug-06 01:00N 58°53' W 003°55'3 6.2
2017-Aug-06 00:30N 58°53' W 004°01'3 6.3
2017-Aug-06 00:00N 58°52' W 004°07'3 6.2
2017-Aug-05 23:30N 58°51' W 004°12'3 6.4
2017-Aug-05 23:00N 58°50' W 004°18'3 6.7
2017-Aug-05 22:30N 58°49' W 004°25'3 6.7
2017-Aug-05 22:00N 58°49' W 004°31'  
Track history (hours):
 
Tides and Currents Weather Stations Pressure Air Temp Water Temp Dewpoint Dewpoint Depression Visibility Wind Speed Wind Dir Waves Ship Positions

Oceanographic research ship Scotia (UK)

Detailed information on ship capabilities available from University of Delaware's Ocean Information Center.

Last reported at 2017-Aug-13 08:52 UTC. Time now 2017-Aug-18 02:47 UTC.
Position N 59°18' W 003°30'.

Length 68.6 m; beam 15 m; draft 5.6 m.

Type: Other ship. MMSI: 234973000.

Date/timePositionNaut miles runAvg speedWind from/ knotsBaromVisibWave heightAir tempDewpointWater temp
2017-Aug-13 08:52N 59°18' W 003°30'2 4.3
2017-Aug-13 08:28N 59°17' W 003°27'1 1.9
2017-Aug-13 07:54N 59°16' W 003°28'1 3.8
2017-Aug-13 07:30N 59°15' W 003°29'4 7.6
2017-Aug-13 07:00N 59°11' W 003°32'5 9.6
2017-Aug-13 06:30N 59°07' W 003°36'5 9.8
2017-Aug-13 06:00N 59°02' W 003°40'5 9.8
2017-Aug-13 05:30N 58°58' W 003°45'5 9.7
2017-Aug-13 05:00N 58°54' W 003°49'2 3.5
2017-Aug-13 04:30N 58°52' W 003°49'2 4.0
2017-Aug-13 04:00N 58°50' W 003°47'0 1.0
2017-Aug-13 03:30N 58°50' W 003°46'1 2.5
2017-Aug-13 03:00N 58°51' W 003°48'2 4.6
2017-Aug-13 02:30N 58°50' W 003°44'2 4.7
2017-Aug-13 02:00N 58°48' W 003°40'2 5.0
2017-Aug-13 01:30N 58°47' W 003°36'3 5.0
2017-Aug-13 01:00N 58°45' W 003°33'3 5.8
2017-Aug-13 00:30N 58°44' W 003°27'4 8.0
2017-Aug-13 00:00N 58°43' W 003°20'4 6.8
2017-Aug-12 23:21N 58°43' W 003°11'2 6.0
2017-Aug-12 23:00N 58°43' W 003°07'2 3.2
2017-Aug-12 22:30N 58°42' W 003°04'2 3.3
2017-Aug-12 22:00N 58°41' W 003°02'4 7.1
2017-Aug-12 21:30N 58°39' W 002°57'5 9.5
2017-Aug-12 21:00N 58°36' W 002°50'510.2
2017-Aug-12 20:30N 58°33' W 002°41'48 1.9
2017-Aug-11 19:16N 57°53' W 001°52'311.1
2017-Aug-11 19:00N 57°51' W 001°53'611.1
2017-Aug-11 18:30N 57°45' W 001°56'4 7.4
2017-Aug-11 18:01N 57°42' W 001°58'1 1.8
2017-Aug-11 17:30N 57°42' W 001°57'0 0.7
2017-Aug-11 17:00N 57°42' W 001°57'1 1.1
2017-Aug-11 16:30N 57°42' W 001°56'0 0.8
2017-Aug-11 16:00N 57°43' W 001°56'0 0.4
2017-Aug-11 15:30N 57°43' W 001°56'1 2.9
2017-Aug-11 15:00N 57°42' W 001°58'0 0.3
2017-Aug-11 14:00N 57°42' W 001°59'1 1.1
2017-Aug-11 13:30N 57°42' W 001°58'1 1.4
2017-Aug-11 13:01N 57°42' W 001°57'1 1.1
2017-Aug-11 12:30N 57°43' W 001°57'1 1.6
2017-Aug-11 12:00N 57°43' W 001°58'1 1.2
2017-Aug-11 11:31N 57°43' W 001°59'1 2.0
2017-Aug-11 11:00N 57°43' W 002°01'4 7.6
2017-Aug-11 10:29N 57°45' W 002°08'5 0.3
2017-Aug-10 16:43N 57°50' W 002°04'210.2
2017-Aug-10 16:30N 57°49' W 001°60'5 9.9
2017-Aug-10 16:00N 57°49' W 001°51'5 9.6
2017-Aug-10 15:30N 57°49' W 001°42'7 3.2
2017-Aug-10 13:17N 57°45' W 001°30'3 7.7
2017-Aug-10 12:56N 57°43' W 001°27'4 9.0
2017-Aug-10 12:30N 57°40' W 001°23'5 9.2
2017-Aug-10 12:01N 57°36' W 001°19'23 6.2
2017-Aug-10 08:16N 57°18' W 001°46'312.3
2017-Aug-10 08:00N 57°16' W 001°50'611.9
2017-Aug-10 07:30N 57°12' W 001°58'4 8.8
2017-Aug-10 07:00N 57°09' W 002°04'0 0.8
2017-Aug-10 06:26N 57°09' W 002°05'0 0.0
2017-Aug-10 05:59N 57°09' W 002°05'0 0.0
2017-Aug-10 05:29N 57°09' W 002°05'0 0.0
2017-Aug-10 04:59N 57°09' W 002°05'0 0.0
2017-Aug-10 04:29N 57°09' W 002°05'0 0.0
2017-Aug-10 03:59N 57°09' W 002°05'0 0.0
2017-Aug-10 03:29N 57°09' W 002°05'0 0.0
2017-Aug-10 02:59N 57°09' W 002°05'0 0.0
2017-Aug-10 02:29N 57°09' W 002°05'0 0.0
2017-Aug-10 01:59N 57°09' W 002°05'0 0.0
2017-Aug-10 01:29N 57°09' W 002°05'0 0.0
2017-Aug-10 00:59N 57°09' W 002°05'0 0.0
2017-Aug-10 00:29N 57°09' W 002°05'0 0.0
2017-Aug-09 23:59N 57°09' W 002°05'0 0.0
2017-Aug-09 23:29N 57°09' W 002°05'0 0.0
2017-Aug-09 22:59N 57°09' W 002°05'0 0.0
2017-Aug-09 22:29N 57°09' W 002°05'0 0.0
2017-Aug-09 21:59N 57°09' W 002°05'0 0.0
2017-Aug-09 21:29N 57°09' W 002°05'0 0.0
2017-Aug-09 20:59N 57°09' W 002°05'0 0.0
2017-Aug-09 20:29N 57°09' W 002°05'0 0.0
2017-Aug-09 19:59N 57°09' W 002°05'0 0.0
2017-Aug-09 19:26N 57°09' W 002°05'0 0.0
2017-Aug-09 18:59N 57°09' W 002°05'0 0.0
2017-Aug-09 18:29N 57°09' W 002°05'0 0.0
2017-Aug-09 17:59N 57°09' W 002°05'0 0.0
2017-Aug-09 17:29N 57°09' W 002°05'0 0.0
2017-Aug-09 16:59N 57°09' W 002°05'0 0.0
2017-Aug-09 16:29N 57°09' W 002°05'0 0.0
2017-Aug-09 15:59N 57°09' W 002°05'0 0.0
2017-Aug-09 15:29N 57°09' W 002°05'0 0.0
2017-Aug-09 14:59N 57°09' W 002°05'0 0.0
2017-Aug-09 14:29N 57°09' W 002°05'0 0.0
2017-Aug-09 13:59N 57°09' W 002°05'0 0.0
2017-Aug-09 13:29N 57°09' W 002°05'0 0.0
2017-Aug-09 12:59N 57°09' W 002°05'0 0.0
2017-Aug-09 12:29N 57°09' W 002°05'0 0.0
2017-Aug-09 11:59N 57°09' W 002°05'0 0.0
2017-Aug-09 11:29N 57°09' W 002°05'0 0.0
2017-Aug-09 10:59N 57°09' W 002°05'0 0.0
2017-Aug-09 10:29N 57°09' W 002°05'0 0.0
2017-Aug-09 09:59N 57°09' W 002°05'0 0.0
2017-Aug-09 09:29N 57°09' W 002°05'0 0.0
2017-Aug-09 08:59N 57°09' W 002°05'0 0.0
2017-Aug-09 08:29N 57°09' W 002°05'0 0.0
2017-Aug-09 07:59N 57°09' W 002°05'0 0.0
2017-Aug-09 07:29N 57°09' W 002°05'0 0.0
2017-Aug-09 06:56N 57°09' W 002°05'0 0.0
2017-Aug-09 06:29N 57°09' W 002°05'0 0.0
2017-Aug-09 05:56N 57°09' W 002°05'0 0.0
2017-Aug-09 05:29N 57°09' W 002°05'0 0.0
2017-Aug-09 04:59N 57°09' W 002°05'0 0.0
2017-Aug-09 04:29N 57°09' W 002°05'0 0.0
2017-Aug-09 03:59N 57°09' W 002°05'0 0.0
2017-Aug-09 03:29N 57°09' W 002°05'0 0.0
2017-Aug-09 02:59N 57°09' W 002°05'0 0.0
2017-Aug-09 02:29N 57°09' W 002°05'0 0.0
2017-Aug-09 01:59N 57°09' W 002°05'0 0.0
2017-Aug-09 01:29N 57°09' W 002°05'0 0.0
2017-Aug-09 00:59N 57°09' W 002°05'0 0.0
2017-Aug-09 00:29N 57°09' W 002°05'0 0.0
2017-Aug-08 23:59N 57°09' W 002°05'0 0.0
2017-Aug-08 23:29N 57°09' W 002°05'0 0.0
2017-Aug-08 22:59N 57°09' W 002°05'0 0.0
2017-Aug-08 22:29N 57°09' W 002°05'0 0.0
2017-Aug-08 21:59N 57°09' W 002°05'0 0.0
2017-Aug-08 21:29N 57°09' W 002°05'0 0.0
2017-Aug-08 20:59N 57°09' W 002°05'0 0.0
2017-Aug-08 20:29N 57°09' W 002°05'0 0.0
2017-Aug-08 19:59N 57°09' W 002°05'0 0.0
2017-Aug-08 19:29N 57°09' W 002°05'0 0.0
2017-Aug-08 18:59N 57°09' W 002°05'0 0.0
2017-Aug-08 18:29N 57°09' W 002°05'0 0.0
2017-Aug-08 17:59N 57°09' W 002°05'0 0.0
2017-Aug-08 17:29N 57°09' W 002°05'0 0.0
2017-Aug-08 16:59N 57°09' W 002°05'0 0.0
2017-Aug-08 16:29N 57°09' W 002°05'0 0.0
2017-Aug-08 15:59N 57°09' W 002°05'0 0.0
2017-Aug-08 15:29N 57°09' W 002°05'0 0.0
2017-Aug-08 14:59N 57°09' W 002°05'0 0.0
2017-Aug-08 14:29N 57°09' W 002°05'0 0.0
2017-Aug-08 13:59N 57°09' W 002°05'0 0.0
2017-Aug-08 13:29N 57°09' W 002°05'0 0.0
2017-Aug-08 12:59N 57°09' W 002°05'0 0.0
2017-Aug-08 12:29N 57°09' W 002°05'0 0.0
2017-Aug-08 11:59N 57°09' W 002°05'0 0.0
2017-Aug-08 11:29N 57°09' W 002°05'0 0.0
2017-Aug-08 10:59N 57°09' W 002°05'0 0.0
2017-Aug-08 10:29N 57°09' W 002°05'0 0.0
2017-Aug-08 09:59N 57°09' W 002°05'0 0.0
2017-Aug-08 09:29N 57°09' W 002°05'0 0.0
2017-Aug-08 08:59N 57°09' W 002°05'0 0.0
2017-Aug-08 08:29N 57°09' W 002°05'0 0.0
2017-Aug-08 07:59N 57°09' W 002°05'0 0.0
2017-Aug-08 07:29N 57°09' W 002°05'0 0.0
2017-Aug-08 06:59N 57°09' W 002°05'0 0.0
2017-Aug-08 06:29N 57°09' W 002°05'0 0.0
2017-Aug-08 05:59N 57°09' W 002°05'0 0.0
2017-Aug-08 05:29N 57°09' W 002°05'0 0.0
2017-Aug-08 04:59N 57°09' W 002°05'0 0.0
2017-Aug-08 04:29N 57°09' W 002°05'0 0.0
2017-Aug-08 03:59N 57°09' W 002°05'0 0.0
2017-Aug-08 03:29N 57°09' W 002°05'0 0.0
2017-Aug-08 02:59N 57°09' W 002°05'0 0.0
2017-Aug-08 02:29N 57°09' W 002°05'0 0.0
2017-Aug-08 01:59N 57°09' W 002°05'0 0.0
2017-Aug-08 01:29N 57°09' W 002°05'0 0.0
2017-Aug-08 00:59N 57°09' W 002°05'0 0.0
2017-Aug-08 00:29N 57°09' W 002°05'0 0.0
2017-Aug-07 23:59N 57°09' W 002°05'0 0.0
2017-Aug-07 23:29N 57°09' W 002°05'0 0.0
2017-Aug-07 22:59N 57°09' W 002°05'0 0.0
2017-Aug-07 22:29N 57°09' W 002°05'0 0.0
2017-Aug-07 21:59N 57°09' W 002°05'0 0.0
2017-Aug-07 21:29N 57°09' W 002°05'0 0.0
2017-Aug-07 20:59N 57°09' W 002°05'0 0.0
2017-Aug-07 20:29N 57°09' W 002°05'0 0.0
2017-Aug-07 19:59N 57°09' W 002°05'0 0.0
2017-Aug-07 19:29N 57°09' W 002°05'0 0.0
2017-Aug-07 18:59N 57°09' W 002°05'0 0.0
2017-Aug-07 18:29N 57°09' W 002°05'0 0.0
2017-Aug-07 17:59N 57°09' W 002°05'0 0.0
2017-Aug-07 17:29N 57°09' W 002°05'0 0.0
2017-Aug-07 16:59N 57°09' W 002°05'0 0.0
2017-Aug-07 16:29N 57°09' W 002°05'0 0.0
2017-Aug-07 15:59N 57°09' W 002°05'0 0.0
2017-Aug-07 15:29N 57°09' W 002°05'0 0.0
2017-Aug-07 14:59N 57°09' W 002°05'0 0.0
2017-Aug-07 14:29N 57°09' W 002°05'0 0.0
2017-Aug-07 13:59N 57°09' W 002°05'0 0.0
2017-Aug-07 13:29N 57°09' W 002°05'0 0.0
2017-Aug-07 12:59N 57°09' W 002°05'0 0.0
2017-Aug-07 12:29N 57°09' W 002°05'0 0.0
2017-Aug-07 11:59N 57°09' W 002°05'0 0.0
2017-Aug-07 11:29N 57°09' W 002°05'0 0.0
2017-Aug-07 10:59N 57°09' W 002°05'0 0.0
2017-Aug-07 10:29N 57°09' W 002°05'0 0.0
2017-Aug-07 09:59N 57°09' W 002°05'0 0.0
2017-Aug-07 09:29N 57°09' W 002°05'0 0.0
2017-Aug-07 08:59N 57°09' W 002°05'0 0.0
2017-Aug-07 08:29N 57°09' W 002°05'0 0.0
2017-Aug-07 07:59N 57°09' W 002°05'0 0.0
2017-Aug-07 07:29N 57°09' W 002°05'0 0.0
2017-Aug-07 06:59N 57°09' W 002°05'0 0.0
2017-Aug-07 06:29N 57°09' W 002°05'0 0.0
2017-Aug-07 05:59N 57°09' W 002°05'0 0.0
2017-Aug-07 05:29N 57°09' W 002°05'0 0.0
2017-Aug-07 04:59N 57°09' W 002°05'0 0.0
2017-Aug-07 04:29N 57°09' W 002°05'0 0.0
2017-Aug-07 03:59N 57°09' W 002°05'0 0.0
2017-Aug-07 03:29N 57°09' W 002°05'0 0.0
2017-Aug-07 02:59N 57°09' W 002°05'0 0.0
2017-Aug-07 02:29N 57°09' W 002°05'0 0.0
2017-Aug-07 01:59N 57°09' W 002°05'0 0.0
2017-Aug-07 01:29N 57°09' W 002°05'0 0.0
2017-Aug-07 00:59N 57°09' W 002°05'0 0.0
2017-Aug-07 00:29N 57°09' W 002°05'0 0.0
2017-Aug-06 23:59N 57°09' W 002°05'0 0.0
2017-Aug-06 23:29N 57°09' W 002°05'0 0.0
2017-Aug-06 22:59N 57°09' W 002°05'0 0.0
2017-Aug-06 22:29N 57°09' W 002°05'0 0.0
2017-Aug-06 21:59N 57°09' W 002°05'0 0.0
2017-Aug-06 21:29N 57°09' W 002°05'0 0.0
2017-Aug-06 20:59N 57°09' W 002°05'0 0.0
2017-Aug-06 20:29N 57°09' W 002°05'0 0.0
2017-Aug-06 19:59N 57°09' W 002°05'0 0.0
2017-Aug-06 19:29N 57°09' W 002°05'0 0.0
2017-Aug-06 18:59N 57°09' W 002°05'0 0.0
2017-Aug-06 18:29N 57°09' W 002°05'0 0.0
2017-Aug-06 17:59N 57°09' W 002°05'0 0.0
2017-Aug-06 17:29N 57°09' W 002°05'0 0.0
2017-Aug-06 16:59N 57°09' W 002°05'1 2.5
2017-Aug-06 16:31N 57°09' W 002°03'2 3.1
2017-Aug-06 16:00N 57°10' W 002°01'3 5.7
2017-Aug-06 15:30N 57°12' W 001°58'4 8.7
2017-Aug-06 15:00N 57°16' W 001°54'611.4
2017-Aug-06 14:30N 57°21' W 001°48'611.8
2017-Aug-06 13:58N 57°27' W 001°42'612.2
2017-Aug-06 13:28N 57°33' W 001°40'7012.4
2017-Aug-06 07:46N 58°33' W 002°50'313.2
2017-Aug-06 07:30N 58°36' W 002°53'815.4
2017-Aug-06 07:00N 58°41' W 003°03'915.4
2017-Aug-06 06:27N 58°45' W 003°18'713.8
2017-Aug-06 05:57N 58°50' W 003°26'511.1
2017-Aug-06 05:30N 58°55' W 003°27'3 5.5
2017-Aug-06 05:00N 58°56' W 003°22'0 0.0
2017-Aug-06 04:30N 58°56' W 003°22'0 0.0
2017-Aug-06 04:00N 58°56' W 003°22'1 1.1
2017-Aug-06 03:30N 58°57' W 003°23'3 6.8
2017-Aug-06 03:00N 58°56' W 003°30'4 7.0
2017-Aug-06 02:30N 58°55' W 003°37'3 6.6
2017-Aug-06 02:00N 58°55' W 003°43'3 6.4
2017-Aug-06 01:30N 58°54' W 003°49'3 6.4
2017-Aug-06 01:00N 58°53' W 003°55'3 6.2
2017-Aug-06 00:30N 58°53' W 004°01'3 6.3
2017-Aug-06 00:00N 58°52' W 004°07'3 6.2
2017-Aug-05 23:30N 58°51' W 004°12'3 6.4
2017-Aug-05 23:00N 58°50' W 004°18'3 6.7
2017-Aug-05 22:30N 58°49' W 004°25'3 6.7
2017-Aug-05 22:00N 58°49' W 004°31'  

Dump ship's entire track history